Regional Weather Roundup
Issued by NWS Newport/Morehead, NC

Current Version | Previous Version | Graphics & Text | Print | Product List | Glossary Off
Versions: 1 2 3 4 5 6 7 8 9 10 11 12 13 14 15 16 17 18 19 20 21 22 23 24 25 26 27 28 29 30 31 32 33 34 35 36 37 38 39 40 41 42 43 44 45 46

000
ASUS42 KMHX 192125
RWRMHX
WEATHER ROUNDUP FOR EASTERN NORTH CAROLINA
NATIONAL WEATHER SERVICE NEWPORT/MOREHEAD CITY NC
500 PM EDT SAT AUG 19 2017

NOTE: "FAIR" INDICATES FEW OR NO CLOUDS BELOW 12,000 FEET
WITH NO SIGNIFICANT WEATHER AND/OR OBSTRUCTIONS TO VISIBILITY

NCZ015>017-031-032-045>047-102-103-192200-
NORTH COAST

CITY           SKY/WX    TMP DP  RH WIND       PRES   REMARKS
EDENTON        CLOUDY    89  75  62 CALM      29.92R
ELIZABETH CITY TSTM      81  79  94 E15       29.91R VSB 3/4
KITTY HAWK     CLOUDY    84  74  70 CALM      29.91R
MANTEO         CLOUDY    84  76  76 SW7       29.93R

$$

NCZ045>047-081-094-103-104-192200-
CENTRAL COAST

CITY           SKY/WX    TMP DP  RH WIND       PRES   REMARKS
FRISCO         LGT RAIN  78  74  87 SW10G20   29.94R

$$

NCZ095-097-098-100-101-192200-
SOUTHERN COAST

CITY           SKY/WX    TMP DP  RH WIND       PRES   REMARKS
BEAUFORT       LGT RAIN  77  76  96 N3        29.96R
CEDAR ISLAND   NOT AVBL
JACKSONVILLE   CLOUDY    77  76  96 CALM      29.94S
PINEY ISLAND   RAIN     N/A N/A N/A NW5       29.95F
WILMINGTON     TSTM      76  74  93 E5        29.96F FOG


$$

NCZ011>013-027>030-043-044-078>080-089-090>093-098-192200-
COASTAL PLAIN

CITY           SKY/WX    TMP DP  RH WIND       PRES   REMARKS
AHOSKIE          N/A     84  77  80 CALM      29.92R
CLINTON        CLOUDY    82  76  81 S5        29.94R
ELIZABETHTOWN  NOT AVBL
GOLDSBORO      MOSUNNY   86  77  75 VRB3      29.92S
GREENVILLE     CLOUDY    84  75  74 CALM      29.95S
HAVELOCK       CLOUDY    77  74  90 S3        29.96F
KENANSVILLE    CLOUDY    77  73  88 S3        29.94F
KINSTON        NOT AVBL
NEW BERN       LGT RAIN  76  75  97 CALM      29.96F
RICHLANDS      LGT RAIN  75  73  94 S3        29.95S
ROCKY MOUNT    CLOUDY    90  68  48 CALM      29.93R
WASHINGTON     CLOUDY    80  73  80 S9G24     29.94R
WHITEVILLE     CLOUDY    78  76  94 E5        29.94R

$$

AMZ130-135-150-152-154-156-158-170-250-252-270-ANZ085-086-088-633-658-670-192200-
MARINE OBSERVATIONS

STATION/POSITION TIME  TEMP    WIND        PRES    WAVE   SWELL
                       AIR SEA DIR/SP/G            HT/PER HT/PER
                 (UTC) (F)     (DEG/KT/KT) (MB)    (FT/S) (FT/S)
CHESAPEAKE LIGHT NOT AVBL
64 E VA BEACH    2050   79 79  300/  4/  4 1013.3    3/ 6   3/ 6
DUCK             2100   81 76   40/  7/  7 1012.8
2 E DUCK         2100      82                N/A     2/ 8
OREGON INLET     2100   84 86  200/  8/ 10 1013.2
13E OREGON INLT  2048      82                N/A     3/ 6   2/12
HATTERAS CG      2100   78 84  220/  9/ 14 1014.1
DIAMOND BUOY     2050   82 84  260/  8/ 12 1013.9    4/ 4   3/ 4
CAPE LOOKOUT     2100   77     310/ 11/ 13 1014.6
BEAUFORT LAB     2100   77 82   10/  6/  7 1014.0
30 SE NEW RVR IN 2108   81 84  300/  8/ 12 1014.3
30 SE NEW RVR IN 2013      84                N/A     4/ 5
27 SE WRIGHTSVLE 2108   84 84  210/ 12/ 17 1013.8
5 SE WRIGHTSVLE  2108   77 84  280/ 21/ 35 1014.8
225 S CAPE HAT   2050   84 85  190/ 12/ 14 1015.8    4/ 8   3/ 8
41 SE CHARLESTON 2110   84 85  210/ 14/ 16 1013.1

$$




USA.gov is the U.S. government's official web portal to all federal, state and local government web resources and services.